Austin Bergstrom, TX

1:43 PM CDT on September 26, 2017 (GMT -0500)
Austin Bergstrom International

Weather History for KAUS - January, 2013

Change the Weather History Date:

Saturday, January 5, 2013

  Actual Average Record
Temperature  
Mean Temperature 42 °F 49 °F  
Max Temperature 54 °F 62 °F 78 °F (1989)
Min Temperature 30 °F 36 °F 14 °F (2000)
Degree Days  
Heating Degree Days 23 16  
Month to date heating degree days 118 80  
Since 1 July heating degree days 732 827  
Cooling Degree Days 0 0  
Month to date cooling degree days 0 0  
Year to date cooling degree days 0 0  
Moisture  
Dew Point 38 °F    
Average Humidity 77    
Maximum Humidity 100    
Minimum Humidity 54    
Precipitation  
Precipitation 0.01 in 0.08 in 1.24 in (1970)
Month to date precipitation 0.37 0.39  
Year to date precipitation 0.37 0.39  
Snow  
Snow 0.00 in - - ()
Month to date snowfall T  
Since 1 July snowfall T  
Snow Depth 0.00 in    
Sea Level Pressure  
Sea Level Pressure 30.33 in    
Wind  
Wind Speed 1 mph (East)    
Max Wind Speed 10 mph    
Max Gust Speed 13 mph    
Visibility 9 miles    
Events Rain    
T = Trace of Precipitation, MM = Missing Value Source: NWS Daily Summary

Daily Weather History Graph

Daily Weather History Graph

Search for Another Location

Airport or City:

Trip Planner

Search our weather history database for the weather conditions in past years. The results will help you decide how hot, cold, wet, or windy it might be!

Date:

Astronomy

Jan. 05, 2013 Rise Set
Actual Time 7:27 AM CST 5:44 PM CST
Civil Twilight 7:01 AM CST 6:11 PM CST
Nautical Twilight 6:31 AM CST 6:40 PM CST
Astronomical Twilight 6:02 AM CST 7:10 PM CST
Moon 12:50 AM CST (1/5) 12:23 PM CST (1/5)
Length of Visible Light 11h 09m
Length of Day
10h 17m
Last Quarter, 44% of the Moon is Illuminated
Jan 5
Last Quarter
Jan 11
New
Jan 18
First Quarter
Jan 26
Full
Feb 3
Last Quarter

Hourly Weather History & Observations

Time (CST) Temp. Windchill Dew Point Humidity Pressure Visibility Wind Dir Wind Speed Gust Speed Precip Events Conditions
12:53 AM 42.1 °F - 41.0 °F 96% 30.39 in 7.0 mi Calm Calm - N/A   Overcast
1:53 AM 42.1 °F - 39.9 °F 92% 30.39 in 6.0 mi Calm Calm - N/A   Overcast
2:53 AM 42.1 °F - 39.9 °F 92% 30.38 in 8.0 mi Calm Calm - N/A   Overcast
3:53 AM 42.1 °F 39.2 °F 39.9 °F 92% 30.39 in 9.0 mi NW 4.6 mph - 0.00 in Rain Light Rain
4:53 AM 42.1 °F 40.2 °F 39.0 °F 89% 30.37 in 10.0 mi NNW 3.5 mph - 0.01 in   Light Drizzle
5:53 AM 42.1 °F - 39.0 °F 89% 30.36 in 10.0 mi Calm Calm - 0.00 in   Overcast
6:10 AM 42.8 °F - 39.2 °F 87% 30.34 in 8.0 mi Calm Calm - 0.00 in Rain Light Rain
6:53 AM 42.1 °F - 39.0 °F 89% 30.36 in 10.0 mi Calm Calm - 0.00 in   Overcast
7:53 AM 42.1 °F - 39.9 °F 92% 30.38 in 10.0 mi Calm Calm - N/A   Overcast
8:53 AM 43.0 °F - 39.0 °F 86% 30.39 in 10.0 mi Calm Calm - N/A   Overcast
9:53 AM 45.0 °F - 39.0 °F 80% 30.38 in 10.0 mi Calm Calm - N/A   Overcast
10:53 AM 46.9 °F - 37.0 °F 68% 30.38 in 10.0 mi Calm Calm - N/A   Overcast
11:53 AM 48.9 °F - 35.1 °F 59% 30.35 in 10.0 mi NNW 4.6 mph - N/A   Overcast
12:53 PM 48.9 °F - 34.0 °F 56% 30.31 in 10.0 mi Calm Calm - N/A   Overcast
1:53 PM 52.0 °F - 36.0 °F 54% 30.27 in 10.0 mi Calm Calm - N/A   Mostly Cloudy
2:53 PM 54.0 °F - 37.0 °F 53% 30.25 in 10.0 mi Calm Calm - N/A   Scattered Clouds
3:53 PM 54.0 °F - 37.9 °F 55% 30.25 in 10.0 mi East 3.5 mph - N/A   Scattered Clouds
4:53 PM 54.0 °F - 37.9 °F 55% 30.25 in 10.0 mi East 3.5 mph - N/A   Scattered Clouds
5:53 PM 48.0 °F - 41.0 °F 77% 30.26 in 10.0 mi SE 8.1 mph - N/A   Scattered Clouds
6:53 PM 44.1 °F 42.5 °F 39.9 °F 85% 30.29 in 10.0 mi SE 3.5 mph - N/A   Scattered Clouds
7:53 PM 39.0 °F 36.8 °F 37.9 °F 96% 30.30 in 9.0 mi SSE 3.5 mph - N/A   Partly Cloudy
8:53 PM 34.0 °F - 34.0 °F 100% 30.31 in 8.0 mi Calm Calm - N/A   Clear
9:53 PM 33.1 °F - 32.0 °F 96% 30.32 in 7.0 mi Calm Calm - N/A   Clear
10:53 PM 30.9 °F - 30.9 °F 100% 30.32 in 7.0 mi Calm Calm - N/A   Clear
11:53 PM 30.9 °F - 30.0 °F 96% 30.33 in 6.0 mi Calm Calm - N/A   Clear